owner,sensor,date,latitude,longitude,vertical_datum,direction_of_sea_water_velocity,sea_water_speed,upward_sea_water_velocity,qcFlag 
TABS,ioos:station:wmo:42048:1,1996-04-01T00:00:00Z,27.9396,-96.8429,2.0,168.0515578,7.921622309,-99999.0,'11133222,11111222,99999999' 
TABS,ioos:station:wmo:42048:1,1996-04-01T00:30:00Z,27.9396,-96.8429,2.0,153.4828673,5.330787934,-99999.0,'11133222,11111222,99999999' 
TABS,ioos:station:wmo:42048:1,1996-04-01T01:00:00Z,27.9396,-96.8429,2.0,151.3771593,3.736642878,-99999.0,'11133222,11111222,99999999' 
TABS,ioos:station:wmo:42048:1,1996-04-01T01:30:00Z,27.9396,-96.8429,2.0,166.4639648,4.443422105,-99999.0,'11133222,11111222,99999999' 
TABS,ioos:station:wmo:42048:1,1996-04-01T02:00:00Z,27.9396,-96.8429,2.0,162.6526451,4.997299271,-99999.0,'11133222,11111222,99999999' 
TABS,ioos:station:wmo:42048:1,1996-04-01T02:30:00Z,27.9396,-96.8429,2.0,156.7680961,4.53795108,-99999.0,'11133222,11111222,99999999' 
TABS,ioos:station:wmo:42048:1,1996-04-01T03:00:00Z,27.9396,-96.8429,2.0,158.8211853,4.954644286,-99999.0,'11133222,11111222,99999999' 
TABS,ioos:station:wmo:42048:1,1996-04-01T03:30:00Z,27.9396,-96.8429,2.0,149.3726398,4.671702045,-99999.0,'11133222,11111222,99999999' 
TABS,ioos:station:wmo:42048:1,1996-04-01T04:00:00Z,27.9396,-96.8429,2.0,159.6627755,4.287248535,-99999.0,'11133222,11111222,99999999' 
TABS,ioos:station:wmo:42048:1,1996-04-01T04:30:00Z,27.9396,-96.8429,2.0,157.3742878,7.746153884,-99999.0,'11133222,11111222,99999999' 
TABS,ioos:station:wmo:42048:1,1996-04-01T05:00:00Z,27.9396,-96.8429,2.0,153.7388685,11.79766079,-99999.0,'11111222,11111222,99999999' 
TABS,ioos:station:wmo:42048:1,1996-04-01T05:30:00Z,27.9396,-96.8429,2.0,146.5447553,9.468811963,-99999.0,'11133222,11111222,99999999' 
TABS,ioos:station:wmo:42048:1,1996-04-01T06:00:00Z,27.9396,-96.8429,2.0,154.0946497,11.26158515,-99999.0,'11111222,11111222,99999999' 
TABS,ioos:station:wmo:42048:1,1996-04-01T06:30:00Z,27.9396,-96.8429,2.0,155.4834898,11.13379091,-99999.0,'11111222,11111222,99999999' 
TABS,ioos:station:wmo:42048:1,1996-04-01T07:00:00Z,27.9396,-96.8429,2.0,157.9935795,6.751925651,-99999.0,'11133222,11111222,99999999' 
TABS,ioos:station:wmo:42048:1,1996-04-01T07:30:00Z,27.9396,-96.8429,2.0,155.8047442,8.003024428,-99999.0,'11133222,11111222,99999999' 
TABS,ioos:station:wmo:42048:1,1996-04-01T08:00:00Z,27.9396,-96.8429,2.0,170.1901748,7.864992053,-99999.0,'11133222,11111222,99999999' 
TABS,ioos:station:wmo:42048:1,1996-04-01T08:30:00Z,27.9396,-96.8429,2.0,170.3517668,7.100429564,-99999.0,'11133222,11111222,99999999' 
TABS,ioos:station:wmo:42048:1,1996-04-01T09:00:00Z,27.9396,-96.8429,2.0,175.6819685,5.976964112,-99999.0,'11133222,11111222,99999999' 
TABS,ioos:station:wmo:42048:1,1996-04-01T09:30:00Z,27.9396,-96.8429,2.0,179.9997895,5.36,-99999.0,'11133222,11111222,99999999' 
TABS,ioos:station:wmo:42048:1,1996-04-01T10:00:00Z,27.9396,-96.8429,2.0,195.1802601,7.408515371,-99999.0,'11133222,11111222,99999999' 
TABS,ioos:station:wmo:42048:1,1996-04-01T10:30:00Z,27.9396,-96.8429,2.0,189.1275529,8.446963952,-99999.0,'11133222,11111222,99999999' 
TABS,ioos:station:wmo:42048:1,1996-04-01T11:00:00Z,27.9396,-96.8429,2.0,196.6238726,7.305347357,-99999.0,'11133222,11111222,99999999' 
TABS,ioos:station:wmo:42048:1,1996-04-01T11:30:00Z,27.9396,-96.8429,2.0,193.7992427,9.978000802,-99999.0,'11133222,11111222,99999999' 
TABS,ioos:station:wmo:42048:1,1996-04-01T12:00:00Z,27.9396,-96.8429,2.0,200.6378564,12.25656151,-99999.0,'11111222,11111222,99999999' 
TABS,ioos:station:wmo:42048:1,1996-04-01T12:30:00Z,27.9396,-96.8429,2.0,203.4271277,13.48133895,-99999.0,'11111222,11111222,99999999' 
TABS,ioos:station:wmo:42048:1,1996-04-01T13:00:00Z,27.9396,-96.8429,2.0,203.1303863,13.28822035,-99999.0,'11111222,11111222,99999999' 
TABS,ioos:station:wmo:42048:1,1996-04-01T13:30:00Z,27.9396,-96.8429,2.0,208.5541383,17.13413552,-99999.0,'11111222,11111222,99999999' 
TABS,ioos:station:wmo:42048:1,1996-04-01T14:00:00Z,27.9396,-96.8429,2.0,201.4570342,17.93292224,-99999.0,'11111222,11111222,99999999' 
TABS,ioos:station:wmo:42048:1,1996-04-01T14:30:00Z,27.9396,-96.8429,2.0,206.5792912,17.65599332,-99999.0,'11111222,11111222,99999999' 
TABS,ioos:station:wmo:42048:1,1996-04-01T15:00:00Z,27.9396,-96.8429,2.0,203.75692,21.81891381,-99999.0,'11111222,11111222,99999999' 
TABS,ioos:station:wmo:42048:1,1996-04-01T15:30:00Z,27.9396,-96.8429,2.0,212.6755594,23.19010134,-99999.0,'11111222,11111222,99999999' 
TABS,ioos:station:wmo:42048:1,1996-04-01T16:00:00Z,27.9396,-96.8429,2.0,211.5896307,21.34255842,-99999.0,'11111222,11111222,99999999' 
TABS,ioos:station:wmo:42048:1,1996-04-01T16:30:00Z,27.9396,-96.8429,2.0,218.4107774,26.6216303,-99999.0,'11111222,11111222,99999999' 
TABS,ioos:station:wmo:42048:1,1996-04-01T17:00:00Z,27.9396,-96.8429,2.0,220.8376536,27.5720964,-99999.0,'11111222,11111222,99999999' 
TABS,ioos:station:wmo:42048:1,1996-04-01T17:30:00Z,27.9396,-96.8429,2.0,222.996968,30.14823544,-99999.0,'11111222,11111222,99999999' 
TABS,ioos:station:wmo:42048:1,1996-04-01T18:00:00Z,27.9396,-96.8429,2.0,225.9513517,31.9302756,-99999.0,'11111222,11111222,99999999' 
TABS,ioos:station:wmo:42048:1,1996-04-01T18:30:00Z,27.9396,-96.8429,2.0,227.2747683,29.21239463,-99999.0,'11111222,11111222,99999999' 
TABS,ioos:station:wmo:42048:1,1996-04-01T19:00:00Z,27.9396,-96.8429,2.0,232.2468567,29.20346726,-99999.0,'11111222,11111222,99999999' 
TABS,ioos:station:wmo:42048:1,1996-04-01T19:30:00Z,27.9396,-96.8429,2.0,234.4898001,28.73409473,-99999.0,'11111222,11111222,99999999' 
TABS,ioos:station:wmo:42048:1,1996-04-01T20:00:00Z,27.9396,-96.8429,2.0,237.3664442,29.02130424,-99999.0,'11111222,11111222,99999999' 
TABS,ioos:station:wmo:42048:1,1996-04-01T20:30:00Z,27.9396,-96.8429,2.0,240.1007472,26.30042015,-99999.0,'11111222,11111222,99999999' 
TABS,ioos:station:wmo:42048:1,1996-04-01T21:00:00Z,27.9396,-96.8429,2.0,238.2879932,25.22616102,-99999.0,'11111222,11111222,99999999' 
TABS,ioos:station:wmo:42048:1,1996-04-01T21:30:00Z,27.9396,-96.8429,2.0,241.5653186,24.40401606,-99999.0,'11111222,11111222,99999999' 
TABS,ioos:station:wmo:42048:1,1996-04-01T22:00:00Z,27.9396,-96.8429,2.0,241.5796349,24.73045491,-99999.0,'11111222,11111222,99999999' 
TABS,ioos:station:wmo:42048:1,1996-04-01T22:30:00Z,27.9396,-96.8429,2.0,240.6705366,26.15217199,-99999.0,'11111222,11111222,99999999' 
TABS,ioos:station:wmo:42048:1,1996-04-01T23:00:00Z,27.9396,-96.8429,2.0,238.0942585,23.68886869,-99999.0,'11111222,11111222,99999999' 
TABS,ioos:station:wmo:42048:1,1996-04-01T23:30:00Z,27.9396,-96.8429,2.0,242.9896802,25.91680922,-99999.0,'11111222,11111222,99999999' 
TABS,ioos:station:wmo:42048:1,1996-04-02T00:00:00Z,27.9396,-96.8429,2.0,244.5036831,24.92755303,-99999.0,'11111222,11111222,99999999' 
TABS,ioos:station:wmo:42048:1,1996-04-02T00:30:00Z,27.9396,-96.8429,2.0,244.4176409,23.45980605,-99999.0,'11111222,11111222,99999999' 
TABS,ioos:station:wmo:42048:1,1996-04-02T01:00:00Z,27.9396,-96.8429,2.0,244.1835101,20.52885774,-99999.0,'11111222,11111222,99999999' 
TABS,ioos:station:wmo:42048:1,1996-04-02T01:30:00Z,27.9396,-96.8429,2.0,247.7905469,19.31280404,-99999.0,'11111222,11111222,99999999' 
TABS,ioos:station:wmo:42048:1,1996-04-02T02:00:00Z,27.9396,-96.8429,2.0,246.4880487,17.54674044,-99999.0,'11111222,11111222,99999999' 
TABS,ioos:station:wmo:42048:1,1996-04-02T02:30:00Z,27.9396,-96.8429,2.0,240.0077131,16.68406725,-99999.0,'11111222,11111222,99999999' 
TABS,ioos:station:wmo:42048:1,1996-04-02T03:00:00Z,27.9396,-96.8429,2.0,238.0931475,17.19849121,-99999.0,'11111222,11111222,99999999' 
TABS,ioos:station:wmo:42048:1,1996-04-02T03:30:00Z,27.9396,-96.8429,2.0,239.2347746,16.30446871,-99999.0,'11111222,11111222,99999999' 
TABS,ioos:station:wmo:42048:1,1996-04-02T04:00:00Z,27.9396,-96.8429,2.0,240.1184227,16.15805062,-99999.0,'11111222,11111222,99999999' 
TABS,ioos:station:wmo:42048:1,1996-04-02T04:30:00Z,27.9396,-96.8429,2.0,240.6601543,13.6739314,-99999.0,'11111222,11111222,99999999' 
TABS,ioos:station:wmo:42048:1,1996-04-02T05:00:00Z,27.9396,-96.8429,2.0,238.8338808,14.10584631,-99999.0,'11111222,11111222,99999999' 
TABS,ioos:station:wmo:42048:1,1996-04-02T05:30:00Z,27.9396,-96.8429,2.0,233.637176,13.32452251,-99999.0,'11111222,11111222,99999999' 
TABS,ioos:station:wmo:42048:1,1996-04-02T06:00:00Z,27.9396,-96.8429,2.0,232.7332643,13.29431834,-99999.0,'11111222,11111222,99999999' 
TABS,ioos:station:wmo:42048:1,1996-04-02T06:30:00Z,27.9396,-96.8429,2.0,239.1911673,10.75814575,-99999.0,'11111222,11111222,99999999' 
TABS,ioos:station:wmo:42048:1,1996-04-02T07:00:00Z,27.9396,-96.8429,2.0,229.290883,9.828051689,-99999.0,'11133222,11111222,99999999' 
TABS,ioos:station:wmo:42048:1,1996-04-02T07:30:00Z,27.9396,-96.8429,2.0,227.4537102,9.908582139,-99999.0,'11133222,11111222,99999999' 
TABS,ioos:station:wmo:42048:1,1996-04-02T08:00:00Z,27.9396,-96.8429,2.0,234.063853,7.360978196,-99999.0,'11133222,11111222,99999999' 
TABS,ioos:station:wmo:42048:1,1996-04-02T08:30:00Z,27.9396,-96.8429,2.0,230.9465335,6.142458791,-99999.0,'11133222,11111222,99999999' 
TABS,ioos:station:wmo:42048:1,1996-04-02T09:00:00Z,27.9396,-96.8429,2.0,226.0118696,6.004273478,-99999.0,'11133222,11111222,99999999' 
TABS,ioos:station:wmo:42048:1,1996-04-02T09:30:00Z,27.9396,-96.8429,2.0,231.8121137,5.305402906,-99999.0,'11133222,11111222,99999999' 
TABS,ioos:station:wmo:42048:1,1996-04-02T10:00:00Z,27.9396,-96.8429,2.0,293.6044808,2.597306297,-99999.0,'11133222,11111222,99999999' 
TABS,ioos:station:wmo:42048:1,1996-04-02T10:30:00Z,27.9396,-96.8429,2.0,270.0004209,0.75,-99999.0,'11133222,11111222,99999999' 
TABS,ioos:station:wmo:42048:1,1996-04-02T11:00:00Z,27.9396,-96.8429,2.0,261.7923819,1.050761629,-99999.0,'11133222,11111222,99999999' 
TABS,ioos:station:wmo:42048:1,1996-04-02T11:30:00Z,27.9396,-96.8429,2.0,270.0004209,0.75,-99999.0,'11133222,11111222,99999999' 
TABS,ioos:station:wmo:42048:1,1996-04-02T12:00:00Z,27.9396,-96.8429,2.0,215.9647104,2.026252699,-99999.0,'11133222,11111222,99999999' 
TABS,ioos:station:wmo:42048:1,1996-04-02T12:30:00Z,27.9396,-96.8429,2.0,233.181016,2.236000894,-99999.0,'11133222,11111222,99999999' 
TABS,ioos:station:wmo:42048:1,1996-04-02T13:00:00Z,27.9396,-96.8429,2.0,226.855838,3.056304959,-99999.0,'11133222,11111222,99999999' 
TABS,ioos:station:wmo:42048:1,1996-04-02T13:30:00Z,27.9396,-96.8429,2.0,230.4400036,3.281615456,-99999.0,'11133222,11111222,99999999' 
TABS,ioos:station:wmo:42048:1,1996-04-02T14:00:00Z,27.9396,-96.8429,2.0,220.5708257,4.120594617,-99999.0,'11133222,11111222,99999999' 
TABS,ioos:station:wmo:42048:1,1996-04-02T14:30:00Z,27.9396,-96.8429,2.0,240.0479248,4.466519898,-99999.0,'11133222,11111222,99999999' 
TABS,ioos:station:wmo:42048:1,1996-04-02T15:00:00Z,27.9396,-96.8429,2.0,240.6711528,4.266907545,-99999.0,'11133222,11111222,99999999' 
TABS,ioos:station:wmo:42048:1,1996-04-02T15:30:00Z,27.9396,-96.8429,2.0,252.2605377,3.905700961,-99999.0,'11133222,11111222,99999999' 
TABS,ioos:station:wmo:42048:1,1996-04-02T16:00:00Z,27.9396,-96.8429,2.0,246.4686226,6.336955105,-99999.0,'11133222,11111222,99999999' 
TABS,ioos:station:wmo:42048:1,1996-04-02T16:30:00Z,27.9396,-96.8429,2.0,266.1571349,6.715094936,-99999.0,'11133222,11111222,99999999' 
TABS,ioos:station:wmo:42048:1,1996-04-02T17:00:00Z,27.9396,-96.8429,2.0,266.321349,7.014449373,-99999.0,'11133222,11111222,99999999' 
TABS,ioos:station:wmo:42048:1,1996-04-02T17:30:00Z,27.9396,-96.8429,2.0,279.2589587,7.396357211,-99999.0,'11133222,11111222,99999999' 
TABS,ioos:station:wmo:42048:1,1996-04-02T18:00:00Z,27.9396,-96.8429,2.0,263.1676492,6.304768037,-99999.0,'11133222,11111222,99999999' 
TABS,ioos:station:wmo:42048:1,1996-04-02T18:30:00Z,27.9396,-96.8429,2.0,249.211382,4.620822438,-99999.0,'11133222,11111222,99999999' 
TABS,ioos:station:wmo:42048:1,1996-04-02T19:00:00Z,27.9396,-96.8429,2.0,276.8323508,6.304768037,-99999.0,'11133222,11111222,99999999' 
TABS,ioos:station:wmo:42048:1,1996-04-02T19:30:00Z,27.9396,-96.8429,2.0,291.5044604,6.083461186,-99999.0,'11133222,11111222,99999999' 
TABS,ioos:station:wmo:42048:1,1996-04-02T20:00:00Z,27.9396,-96.8429,2.0,288.0590942,6.742121328,-99999.0,'11133222,11111222,99999999' 
TABS,ioos:station:wmo:42048:1,1996-04-02T20:30:00Z,27.9396,-96.8429,2.0,293.6423534,7.805088084,-99999.0,'11133222,11111222,99999999' 
TABS,ioos:station:wmo:42048:1,1996-04-02T21:00:00Z,27.9396,-96.8429,2.0,293.4614253,4.872832852,-99999.0,'11133222,11111222,99999999' 
TABS,ioos:station:wmo:42048:1,1996-04-02T21:30:00Z,27.9396,-96.8429,2.0,293.0014268,6.474758683,-99999.0,'11133222,11111222,99999999' 
TABS,ioos:station:wmo:42048:1,1996-04-02T22:00:00Z,27.9396,-96.8429,2.0,286.6878659,4.66652976,-99999.0,'11133222,11111222,99999999' 
TABS,ioos:station:wmo:42048:1,1996-04-02T22:30:00Z,27.9396,-96.8429,2.0,289.5441362,4.902448368,-99999.0,'11133222,11111222,99999999' 
TABS,ioos:station:wmo:42048:1,1996-04-02T23:00:00Z,27.9396,-96.8429,2.0,287.458097,2.96664794,-99999.0,'11133222,11111222,99999999' 
TABS,ioos:station:wmo:42048:1,1996-04-02T23:30:00Z,27.9396,-96.8429,2.0,305.9003866,3.308473968,-99999.0,'11133222,11111222,99999999' 
TABS,ioos:station:wmo:42048:1,1996-04-03T00:00:00Z,27.9396,-96.8429,2.0,310.0775118,4.861614958,-99999.0,'11133222,11111222,99999999' 
TABS,ioos:station:wmo:42048:1,1996-04-03T00:30:00Z,27.9396,-96.8429,2.0,270.0004209,1.34,-99999.0,'11133222,11111222,99999999' 
TABS,ioos:station:wmo:42048:1,1996-04-03T01:00:00Z,27.9396,-96.8429,2.0,310.2101962,2.540314941,-99999.0,'11133222,11111222,99999999' 
TABS,ioos:station:wmo:42048:1,1996-04-03T01:30:00Z,27.9396,-96.8429,2.0,296.8223394,0.997296345,-99999.0,'11133222,11111222,99999999' 
TABS,ioos:station:wmo:42048:1,1996-04-03T02:00:00Z,27.9396,-96.8429,2.0,220.1204219,1.163872845,-99999.0,'11133222,11111222,99999999' 
TABS,ioos:station:wmo:42048:1,1996-04-03T02:30:00Z,27.9396,-96.8429,2.0,199.7403529,2.22049544,-99999.0,'11133222,11111222,99999999' 
TABS,ioos:station:wmo:42048:1,1996-04-03T03:00:00Z,27.9396,-96.8429,2.0,229.44378,1.368831619,-99999.0,'11133222,11111222,99999999' 
TABS,ioos:station:wmo:42048:1,1996-04-03T03:30:00Z,27.9396,-96.8429,2.0,190.8513402,3.186989175,-99999.0,'11133222,11111222,99999999' 
TABS,ioos:station:wmo:42048:1,1996-04-03T04:00:00Z,27.9396,-96.8429,2.0,200.1776765,3.015045605,-99999.0,'11133222,11111222,99999999' 
TABS,ioos:station:wmo:42048:1,1996-04-03T04:30:00Z,27.9396,-96.8429,2.0,228.0337169,2.003921156,-99999.0,'11133222,11111222,99999999' 
TABS,ioos:station:wmo:42048:1,1996-04-03T05:00:00Z,27.9396,-96.8429,2.0,224.9996843,2.743574311,-99999.0,'11133222,11111222,99999999' 
TABS,ioos:station:wmo:42048:1,1996-04-03T05:30:00Z,27.9396,-96.8429,2.0,214.5694887,2.890328701,-99999.0,'11133222,11111222,99999999' 
TABS,ioos:station:wmo:42048:1,1996-04-03T06:00:00Z,27.9396,-96.8429,2.0,223.3505531,3.685552876,-99999.0,'11133222,11111222,99999999' 
TABS,ioos:station:wmo:42048:1,1996-04-03T06:30:00Z,27.9396,-96.8429,2.0,229.4209634,2.751763071,-99999.0,'11133222,11111222,99999999' 
TABS,ioos:station:wmo:42048:1,1996-04-03T07:00:00Z,27.9396,-96.8429,2.0,214.5694887,2.890328701,-99999.0,'11133222,11111222,99999999' 
TABS,ioos:station:wmo:42048:1,1996-04-03T07:30:00Z,27.9396,-96.8429,2.0,222.8680761,2.851613578,-99999.0,'11133222,11111222,99999999' 
TABS,ioos:station:wmo:42048:1,1996-04-03T08:00:00Z,27.9396,-96.8429,2.0,209.4921197,3.940621778,-99999.0,'11133222,11111222,99999999' 
TABS,ioos:station:wmo:42048:1,1996-04-03T08:30:00Z,27.9396,-96.8429,2.0,210.2760537,4.145419159,-99999.0,'11133222,11111222,99999999' 
TABS,ioos:station:wmo:42048:1,1996-04-03T09:00:00Z,27.9396,-96.8429,2.0,198.4346953,4.711793714,-99999.0,'11133222,11111222,99999999' 
TABS,ioos:station:wmo:42048:1,1996-04-03T09:30:00Z,27.9396,-96.8429,2.0,197.9246585,5.328648984,-99999.0,'11133222,11111222,99999999' 
TABS,ioos:station:wmo:42048:1,1996-04-03T10:00:00Z,27.9396,-96.8429,2.0,189.1751919,5.581415591,-99999.0,'11133222,11111222,99999999' 
TABS,ioos:station:wmo:42048:1,1996-04-03T10:30:00Z,27.9396,-96.8429,2.0,195.3849419,6.181520848,-99999.0,'11133222,11111222,99999999' 
TABS,ioos:station:wmo:42048:1,1996-04-03T11:00:00Z,27.9396,-96.8429,2.0,184.4286481,5.827400793,-99999.0,'11133222,11111222,99999999' 
TABS,ioos:station:wmo:42048:1,1996-04-03T11:30:00Z,27.9396,-96.8429,2.0,190.1962899,7.569550845,-99999.0,'11133222,11111222,99999999' 
TABS,ioos:station:wmo:42048:1,1996-04-03T12:00:00Z,27.9396,-96.8429,2.0,192.2714795,7.010178314,-99999.0,'11133222,11111222,99999999' 
TABS,ioos:station:wmo:42048:1,1996-04-03T12:30:00Z,27.9396,-96.8429,2.0,187.7096636,8.870186018,-99999.0,'11133222,11111222,99999999' 
TABS,ioos:station:wmo:42048:1,1996-04-03T13:00:00Z,27.9396,-96.8429,2.0,191.1246157,8.499717642,-99999.0,'11133222,11111222,99999999' 
TABS,ioos:station:wmo:42048:1,1996-04-03T13:30:00Z,27.9396,-96.8429,2.0,197.7575766,8.295233571,-99999.0,'11133222,11111222,99999999' 
TABS,ioos:station:wmo:42048:1,1996-04-03T14:00:00Z,27.9396,-96.8429,2.0,203.530746,6.336955105,-99999.0,'11133222,11111222,99999999' 
TABS,ioos:station:wmo:42048:1,1996-04-03T14:30:00Z,27.9396,-96.8429,2.0,204.6426086,7.866441381,-99999.0,'11133222,11111222,99999999' 
TABS,ioos:station:wmo:42048:1,1996-04-03T15:00:00Z,27.9396,-96.8429,2.0,207.6525399,7.067248404,-99999.0,'11133222,11111222,99999999' 
TABS,ioos:station:wmo:42048:1,1996-04-03T15:30:00Z,27.9396,-96.8429,2.0,211.6891137,5.958338695,-99999.0,'11133222,11111222,99999999' 
TABS,ioos:station:wmo:42048:1,1996-04-03T16:00:00Z,27.9396,-96.8429,2.0,213.3081522,6.24606276,-99999.0,'11133222,11111222,99999999' 
TABS,ioos:station:wmo:42048:1,1996-04-03T16:30:00Z,27.9396,-96.8429,2.0,222.1181073,4.219691932,-99999.0,'11133222,11111222,99999999' 
TABS,ioos:station:wmo:42048:1,1996-04-03T17:00:00Z,27.9396,-96.8429,2.0,210.0922384,3.270856157,-99999.0,'11133222,11111222,99999999' 
TABS,ioos:station:wmo:42048:1,1996-04-03T17:30:00Z,27.9396,-96.8429,2.0,204.1207163,1.468196172,-99999.0,'11133222,11111222,99999999' 
TABS,ioos:station:wmo:42048:1,1996-04-03T18:00:00Z,27.9396,-96.8429,2.0,206.4366006,1.999049774,-99999.0,'11133222,11111222,99999999' 
TABS,ioos:station:wmo:42048:1,1996-04-03T18:30:00Z,27.9396,-96.8429,2.0,212.3803915,1.941957775,-99999.0,'11133222,11111222,99999999' 
TABS,ioos:station:wmo:42048:1,1996-04-03T19:00:00Z,27.9396,-96.8429,2.0,0.0,0.0,-99999.0,'11133222,11111222,99999999' 
TABS,ioos:station:wmo:42048:1,1996-04-03T19:30:00Z,27.9396,-96.8429,2.0,186.3868916,1.348369386,-99999.0,'11133222,11111222,99999999' 
TABS,ioos:station:wmo:42048:1,1996-04-03T20:00:00Z,27.9396,-96.8429,2.0,348.6903044,0.764852927,-99999.0,'11133222,11111222,99999999' 
TABS,ioos:station:wmo:42048:1,1996-04-03T20:30:00Z,27.9396,-96.8429,2.0,18.56329414,1.413541651,-99999.0,'11133222,11111222,99999999' 
TABS,ioos:station:wmo:42048:1,1996-04-03T21:00:00Z,27.9396,-96.8429,2.0,134.9998948,0.636396103,-99999.0,'11133222,11111222,99999999' 
TABS,ioos:station:wmo:42048:1,1996-04-03T21:30:00Z,27.9396,-96.8429,2.0,153.4348005,0.335410197,-99999.0,'11133222,11111222,99999999' 
TABS,ioos:station:wmo:42048:1,1996-04-03T22:00:00Z,27.9396,-96.8429,2.0,116.7572556,1.332704018,-99999.0,'11133222,11111222,99999999' 
TABS,ioos:station:wmo:42048:1,1996-04-03T22:30:00Z,27.9396,-96.8429,2.0,90.0,0.45,-99999.0,'11133222,11111222,99999999' 
TABS,ioos:station:wmo:42048:1,1996-04-03T23:00:00Z,27.9396,-96.8429,2.0,161.5648838,0.474341649,-99999.0,'11133222,11111222,99999999' 
TABS,ioos:station:wmo:42048:1,1996-04-03T23:30:00Z,27.9396,-96.8429,2.0,36.79290801,1.486001346,-99999.0,'11133222,11111222,99999999' 
TABS,ioos:station:wmo:42048:1,1996-04-04T00:00:00Z,27.9396,-96.8429,2.0,42.49606024,2.427694379,-99999.0,'11133222,11111222,99999999' 
TABS,ioos:station:wmo:42048:1,1996-04-04T00:30:00Z,27.9396,-96.8429,2.0,33.98629809,1.073359213,-99999.0,'11133222,11111222,99999999' 
TABS,ioos:station:wmo:42048:1,1996-04-04T01:00:00Z,27.9396,-96.8429,2.0,270.0004209,0.75,-99999.0,'11133222,11111222,99999999' 
TABS,ioos:station:wmo:42048:1,1996-04-04T01:30:00Z,27.9396,-96.8429,2.0,45.00010523,1.060660172,-99999.0,'11133222,11111222,99999999' 
TABS,ioos:station:wmo:42048:1,1996-04-04T02:00:00Z,27.9396,-96.8429,2.0,14.0364211,0.618465844,-99999.0,'11133222,11111222,99999999' 
TABS,ioos:station:wmo:42048:1,1996-04-04T02:30:00Z,27.9396,-96.8429,2.0,0.0,0.0,-99999.0,'11133222,11111222,99999999' 
TABS,ioos:station:wmo:42048:1,1996-04-04T03:00:00Z,27.9396,-96.8429,2.0,0.0,0.0,-99999.0,'11133222,11111222,99999999' 
TABS,ioos:station:wmo:42048:1,1996-04-04T03:30:00Z,27.9396,-96.8429,2.0,11.40890198,2.274950549,-99999.0,'11133222,11111222,99999999' 
TABS,ioos:station:wmo:42048:1,1996-04-04T04:00:00Z,27.9396,-96.8429,2.0,45.00010523,1.060660172,-99999.0,'11133222,11111222,99999999' 
TABS,ioos:station:wmo:42048:1,1996-04-04T04:30:00Z,27.9396,-96.8429,2.0,20.71433686,1.272242115,-99999.0,'11133222,11111222,99999999' 
TABS,ioos:station:wmo:42048:1,1996-04-04T05:00:00Z,27.9396,-96.8429,2.0,32.6660286,2.482680004,-99999.0,'11133222,11111222,99999999' 
TABS,ioos:station:wmo:42048:1,1996-04-04T05:30:00Z,27.9396,-96.8429,2.0,19.74077378,2.22049544,-99999.0,'11133222,11111222,99999999' 
TABS,ioos:station:wmo:42048:1,1996-04-04T06:00:00Z,27.9396,-96.8429,2.0,20.52112149,3.822564584,-99999.0,'11133222,11111222,99999999' 
TABS,ioos:station:wmo:42048:1,1996-04-04T06:30:00Z,27.9396,-96.8429,2.0,45.00010523,3.365828278,-99999.0,'11133222,11111222,99999999' 
TABS,ioos:station:wmo:42048:1,1996-04-04T07:00:00Z,27.9396,-96.8429,2.0,46.55949265,3.897601827,-99999.0,'11133222,11111222,99999999' 
TABS,ioos:station:wmo:42048:1,1996-04-04T07:30:00Z,27.9396,-96.8429,2.0,45.00010523,3.365828278,-99999.0,'11133222,11111222,99999999' 
TABS,ioos:station:wmo:42048:1,1996-04-04T08:00:00Z,27.9396,-96.8429,2.0,70.19026272,3.953985331,-99999.0,'11133222,11111222,99999999' 
TABS,ioos:station:wmo:42048:1,1996-04-04T08:30:00Z,27.9396,-96.8429,2.0,52.49969751,5.634341133,-99999.0,'11133222,11111222,99999999' 
TABS,ioos:station:wmo:42048:1,1996-04-04T09:00:00Z,27.9396,-96.8429,2.0,64.6625869,6.262427644,-99999.0,'11133222,11111222,99999999' 
TABS,ioos:station:wmo:42048:1,1996-04-04T09:30:00Z,27.9396,-96.8429,2.0,57.81568328,4.749873683,-99999.0,'11133222,11111222,99999999' 
TABS,ioos:station:wmo:42048:1,1996-04-04T10:00:00Z,27.9396,-96.8429,2.0,66.05740627,5.864639801,-99999.0,'11133222,11111222,99999999' 
TABS,ioos:station:wmo:42048:1,1996-04-04T10:30:00Z,27.9396,-96.8429,2.0,84.61070084,4.791179396,-99999.0,'11133222,11111222,99999999' 
TABS,ioos:station:wmo:42048:1,1996-04-04T11:00:00Z,27.9396,-96.8429,2.0,90.0,5.07,-99999.0,'11133222,11111222,99999999' 
TABS,ioos:station:wmo:42048:1,1996-04-04T11:30:00Z,27.9396,-96.8429,2.0,97.17232212,6.007004245,-99999.0,'11133222,11111222,99999999' 
TABS,ioos:station:wmo:42048:1,1996-04-04T12:00:00Z,27.9396,-96.8429,2.0,100.6886764,5.607289898,-99999.0,'11133222,11111222,99999999' 
TABS,ioos:station:wmo:42048:1,1996-04-04T12:30:00Z,27.9396,-96.8429,2.0,116.5197676,5.66619802,-99999.0,'11133222,11111222,99999999' 
TABS,ioos:station:wmo:42048:1,1996-04-04T13:00:00Z,27.9396,-96.8429,2.0,112.7781355,5.010788361,-99999.0,'11133222,11111222,99999999' 
TABS,ioos:station:wmo:42048:1,1996-04-04T13:30:00Z,27.9396,-96.8429,2.0,109.4459004,5.376709031,-99999.0,'11133222,11111222,99999999' 
TABS,ioos:station:wmo:42048:1,1996-04-04T14:00:00Z,27.9396,-96.8429,2.0,103.0975182,4.589389938,-99999.0,'11133222,11111222,99999999' 
TABS,ioos:station:wmo:42048:1,1996-04-04T14:30:00Z,27.9396,-96.8429,2.0,113.7907182,4.065464303,-99999.0,'11133222,11111222,99999999' 
TABS,ioos:station:wmo:42048:1,1996-04-04T15:00:00Z,27.9396,-96.8429,2.0,118.1365662,4.728826493,-99999.0,'11133222,11111222,99999999' 
TABS,ioos:station:wmo:42048:1,1996-04-04T15:30:00Z,27.9396,-96.8429,2.0,133.6593677,4.53379532,-99999.0,'11133222,11111222,99999999' 
TABS,ioos:station:wmo:42048:1,1996-04-04T16:00:00Z,27.9396,-96.8429,2.0,138.8366296,4.755344362,-99999.0,'11133222,11111222,99999999' 